Starlink 31144

operational
NORAD ID: 58682 Int'l Des: 2023-211 Owner: SPXS Country: US Constellation: starlink
LEOCIRCULAR

About Starlink 31144

Description loading...

Live Position

Loading 3D Globe...

Upcoming Passes

Altitude History

Altitude vs Time

uPlot chart will show altitude changes over time

Two-Line Element Set

1 58682U 23211R 25352.57226816 .00000062 00000-0 11789-4 0 9990
2 58682 43.0000 182.9615 0001102 272.7312 87.3413 15.27584227110065
Epoch: Dec 18, 2025 • Age: 17 hours

Current Status

Altitude 482.7 km
Velocity 7.63 km/s
Sub-Earth Point 0.56°N, 13.64°W
Launch Date Dec 29, 2023
Age 1.9 years
Type internet

Technical Details

Classification Payload
Mass 730.00 kg
Dry Mass 700.00 kg
Total Mass 730.00 kg
Length 0.30 m
Diameter 4.10 m
Span 29.00 m
Shape Box + pan
Manufacturer SPXS
Bus Type Starlink V2M
Phase Status In Orbit
Owner/State SPXS/US

Large Constellations

Loading constellations...